TimeAKDT,TemperatureF,Dew PointF,Humidity,Sea Level PressureIn,VisibilityMPH,Wind Direction,Wind SpeedMPH,Gust SpeedMPH,PrecipitationIn,Events,Conditions,WindDirDegrees,DateUTC
12:53 AM,37.0,30.9,79,30.22,10.0,West,6.9,-,0.01,,Overcast,260,2013-03-31 08:53:00
1:53 AM,35.1,30.9,85,30.23,10.0,NNW,3.5,-,0.00,,Overcast,330,2013-03-31 09:53:00
2:53 AM,36.0,32.0,86,30.24,9.0,ESE,4.6,-,0.00,,Overcast,110,2013-03-31 10:53:00
3:43 AM,35.6,30.2,81,30.23,9.0,North,3.5,-,0.01,Rain,Light Rain,360,2013-03-31 11:43:00
3:53 AM,35.1,30.9,85,30.23,10.0,Calm,Calm,-,0.01,,Overcast,0,2013-03-31 11:53:00
4:53 AM,35.1,32.0,89,30.24,10.0,Calm,Calm,-,0.00,,Overcast,0,2013-03-31 12:53:00
5:21 AM,33.8,30.2,87,30.23,9.0,Calm,Calm,-,0.01,Rain,Light Rain,0,2013-03-31 13:21:00
5:37 AM,33.8,30.2,87,30.23,10.0,Calm,Calm,-,0.01,Rain,Light Rain,0,2013-03-31 13:37:00
5:53 AM,34.0,30.9,89,30.23,10.0,Calm,Calm,-,0.01,Rain,Light Rain,0,2013-03-31 13:53:00
6:53 AM,33.1,30.0,89,30.23,10.0,Calm,Calm,-,0.00,,Mostly Cloudy,0,2013-03-31 14:53:00
7:53 AM,30.9,28.9,92,30.24,10.0,Calm,Calm,-,N/A,,Mostly Cloudy,0,2013-03-31 15:53:00
8:53 AM,30.9,28.9,92,30.24,10.0,Calm,Calm,-,N/A,,Mostly Cloudy,0,2013-03-31 16:53:00
9:53 AM,35.1,30.0,82,30.24,10.0,Calm,Calm,-,N/A,,Scattered Clouds,0,2013-03-31 17:53:00
10:53 AM,37.9,30.0,73,30.24,10.0,ENE,3.5,-,N/A,,Scattered Clouds,70,2013-03-31 18:53:00
11:53 AM,39.9,30.0,68,30.24,10.0,Calm,Calm,-,N/A,,Scattered Clouds,0,2013-03-31 19:53:00
12:53 PM,39.0,33.1,79,30.23,10.0,SW,5.8,-,N/A,,Scattered Clouds,220,2013-03-31 20:53:00
1:53 PM,41.0,30.9,67,30.22,10.0,SW,6.9,-,N/A,,Clear,220,2013-03-31 21:53:00
2:53 PM,41.0,30.0,65,30.20,10.0,WSW,10.4,-,N/A,,Mostly Cloudy,250,2013-03-31 22:53:00
3:48 PM,37.4,28.4,70,30.19,10.0,Calm,Calm,-,0.01,Snow,Light Snow,0,2013-03-31 23:48:00
3:53 PM,37.0,30.0,76,30.20,10.0,NW,5.8,-,0.02,Snow,Light Snow,310,2013-03-31 23:53:00
4:17 PM,37.4,32.0,81,30.18,10.0,West,5.8,-,0.00,,Overcast,270,2013-04-01 00:17:00
4:53 PM,39.0,33.1,79,30.17,10.0,West,6.9,-,0.00,,Mostly Cloudy,260,2013-04-01 00:53:00
5:53 PM,39.0,30.0,70,30.16,7.0,SSW,4.6,-,0.00,Rain,Light Rain,200,2013-04-01 01:53:00
6:11 PM,37.4,30.2,75,30.16,10.0,SW,4.6,-,0.00,,Scattered Clouds,230,2013-04-01 02:11:00
6:53 PM,39.0,30.9,73,30.15,10.0,Calm,Calm,-,0.00,,Partly Cloudy,0,2013-04-01 02:53:00
7:53 PM,39.9,30.9,70,30.14,10.0,WSW,5.8,-,0.00,Rain,Light Rain,240,2013-04-01 03:53:00
8:53 PM,36.0,32.0,86,30.14,10.0,East,9.2,-,0.00,,Partly Cloudy,90,2013-04-01 04:53:00
9:21 PM,35.6,32.0,87,30.14,10.0,ENE,8.1,-,N/A,,Mostly Cloudy,70,2013-04-01 05:21:00
9:53 PM,34.0,30.9,89,30.15,10.0,Calm,Calm,-,N/A,,Scattered Clouds,0,2013-04-01 05:53:00
10:53 PM,34.0,30.0,85,30.14,10.0,Calm,Calm,-,N/A,,Overcast,0,2013-04-01 06:53:00
11:53 PM,32.0,28.9,88,30.13,10.0,Calm,Calm,-,N/A,,Mostly Cloudy,0,2013-04-01 07:53:00